World > North America > United States > New York > Schenectady County

Hourly Schenectady County, NY Regional Weather

Feedback E-mail the Weather

Quick WX

Schenectady County, NY Weather Maps

°F °C°F °C
Schenectady County Weather Map
UTC Time: 8/15/2022, 20:09
Your Time:

Schenectady County, NY Regional Weather

Expires:202208152000;;093979
ASUS41 KALY 151910
RWRALY

NEW YORK STATE HOURLY WEATHER ROUNDUP
NATIONAL WEATHER SERVICE ALBANY NY
300 PM EDT MON AUG 15 2022

NOTE: "FAIR" INDICATES FEW OR NO CLOUDS BELOW 12,000 FEET WITH NO
SIGNIFICANT WEATHER AND/OR NO OBSTRUCTIONS TO VISIBILITY.


NYZ032-033-038>043-046>054-057>066-NYZ062>081-082-084-152000-
EAST

  
CITY           SKY/WX    TMP DP  RH WIND       PRES   REMARKS
ALBANY         MOSUNNY   85  54  34 N9        29.97F                  
GLENS FALLS    SUNNY     82  52  35 VRB3      29.98F                  
POUGHKEEPSIE   MOSUNNY   87  49  26 SE8       29.94F                  
NEWBURGH       MOSUNNY   86  48  26 S7        29.97F                  
MONTGOMERY     MOSUNNY   84  49  29 E8        29.95F                  
WHITE PLAINS   MOSUNNY   81  52  36 S14       29.99S                  
ISLIP          PTSUNNY   77  55  46 SE10      30.00S                  
NEW YORK CITY  PTSUNNY   82  53  36 S12       29.98S                  
CENTRAL PARK   SUNNY     82  54  37 VRB6      30.01S                  
$$


SKY/WX - Weather  TMP - Temperature  DP - Dew Point  RH - Humidity
WIND - Wind Direction/Speed PRES - Barometric Pressure VSB - Visibility
WCI - Wind Chill Index E13G22 Wind - East Wind 13 mph/Gusts of 22 mph

Trending Headlines

Schenectady County Radar Loop



Schenectady County Quick Facts


National Two Day Weather Forecast


E-mail the Schenectady County Weather Forecast

Voice your opinion or tell us about page issues...